| time (UTC) | temp F | wind direction | speed MPH | gust MPH | rain 1hr in | rain 24hr in | rain mn in | humidity % | barometer mb |
| 20260510152751 | 62 | 88 | 1.0 | 2.0 | 0.00 | 0.01 | 0.01 | 85 | 1011.2 |
| 20260510152248 | 61 | 199 | 3.0 | 3.0 | 0.00 | 0.01 | 0.01 | 86 | 1011.1 |
| 20260510151744 | 60 | 193 | 2.0 | 3.0 | 0.00 | 0.01 | 0.01 | 87 | 1010.8 |
| 20260510151243 | 60 | 220 | 3.0 | 3.0 | 0.00 | 0.01 | 0.01 | 87 | 1010.9 |
| 20260510150738 | 59 | 206 | 2.0 | 2.0 | 0.00 | 0.01 | 0.01 | 89 | 1010.7 |
| 20260510150234 | 59 | 134 | 2.0 | 2.0 | 0.00 | 0.01 | 0.01 | 92 | 1010.9 |
| 20260510145730 | 58 | 150 | 2.0 | 2.0 | 0.00 | 0.01 | 0.01 | 94 | 1010.9 |
| 20260510145226 | 58 | 28 | 1.0 | 1.0 | 0.07 | 0.01 | 0.01 | 95 | 1010.8 |
| 20260510144723 | 57 | 111 | 1.0 | 1.0 | 0.07 | 0.01 | 0.01 | 97 | 1010.8 |
| 20260510144220 | 57 | 10 | 1.0 | 1.0 | 0.00 | 0.00 | 0.00 | 98 | 1010.9 |
| 20260510143714 | 57 | 44 | 0.0 | 0.0 | 0.00 | 0.00 | 0.00 | 98 | 1011.1 |
| 20260510143211 | 57 | 85 | 1.0 | 1.0 | 0.00 | 0.00 | 0.00 | 99 | 1011.0 |
| 20260510142708 | 57 | 27 | 1.0 | 1.0 | 0.00 | 0.00 | 0.00 | 99 | 1010.9 |
| 20260510142204 | 56 | 77 | 1.0 | 1.0 | 0.00 | 0.00 | 0.00 | 99 | 1010.6 |
| 20260510141701 | 55 | 63 | 0.0 | 0.0 | 0.00 | 0.00 | 0.00 | 99 | 1010.8 |
| 20260510141200 | 55 | 42 | 0.0 | 1.0 | 0.00 | 0.00 | 0.00 | 99 | 1010.8 |
| 20260510140656 | 55 | 73 | 1.0 | 1.0 | 0.00 | 0.00 | 0.00 | 99 | 1010.7 |
| 20260510140155 | 55 | 96 | 1.0 | 2.0 | 0.00 | 0.00 | 0.00 | 99 | 1010.9 |
| 20260510135650 | 55 | 68 | 0.0 | 0.0 | 0.00 | 0.00 | 0.00 | 99 | 1010.5 |
| 20260510135147 | 55 | 69 | 1.0 | 1.0 | 0.00 | 0.00 | 0.00 | 99 | 1010.6 |
| 20260510134644 | 54 | 71 | 0.0 | 0.0 | 0.00 | 0.00 | 0.00 | 99 | 1010.7 |
| 20260510134141 | 54 | 101 | 1.0 | 1.0 | 0.00 | 0.00 | 0.00 | 99 | 1010.6 |
| 20260510133637 | 54 | 209 | 3.0 | 3.0 | 0.00 | 0.00 | 0.00 | 99 | 1010.4 |
| 20260510133132 | 54 | 79 | 0.0 | 0.0 | 0.00 | 0.00 | 0.00 | 99 | 1010.8 |
| 20260510132629 | 54 | 68 | 0.0 | 0.0 | 0.00 | 0.00 | 0.00 | 99 | 1010.8 |
| 20260510132126 | 54 | 95 | 1.0 | 1.0 | 0.00 | 0.00 | 0.00 | 99 | 1010.8 |
| 20260510131624 | 53 | 63 | 0.0 | 0.0 | 0.00 | 0.00 | 0.00 | 99 | 1010.9 |
| 20260510131121 | 53 | 75 | 1.0 | 1.0 | 0.00 | 0.00 | 0.00 | 99 | 1010.7 |
| 20260510130618 | 53 | 227 | 1.0 | 2.0 | 0.00 | 0.00 | 0.00 | 99 | 1010.7 |
| 20260510130115 | 53 | 31 | 1.0 | 1.0 | 0.00 | 0.00 | 0.00 | 99 | 1010.5 |
| 20260510125611 | 53 | 10 | 1.0 | 1.0 | 0.00 | 0.00 | 0.00 | 99 | 1010.5 |
| 20260510125108 | 53 | 169 | 2.0 | 2.0 | 0.00 | 0.00 | 0.00 | 99 | 1010.3 |
| 20260510124604 | 53 | 73 | 1.0 | 1.0 | 0.00 | 0.00 | 0.00 | 99 | 1010.3 |
| 20260510124101 | 53 | 87 | 0.0 | 0.0 | 0.00 | 0.00 | 0.00 | 99 | 1010.3 |
| 20260510123556 | 53 | 45 | 0.0 | 0.0 | 0.00 | 0.00 | 0.00 | 99 | 1010.5 |
| 20260510123053 | 53 | 78 | 1.0 | 1.0 | 0.00 | 0.00 | 0.00 | 99 | 1010.2 |
| 20260510122548 | 52 | 26 | 2.0 | 2.0 | 0.00 | 0.00 | 0.00 | 99 | 1010.3 |
| 20260510122045 | 52 | 68 | 1.0 | 1.0 | 0.00 | 0.00 | 0.00 | 99 | 1010.1 |
| 20260510121543 | 53 | 76 | 1.0 | 1.0 | 0.00 | 0.00 | 0.00 | 99 | 1009.9 |
| 20260510121039 | 52 | 61 | 0.0 | 0.0 | 0.00 | 0.00 | 0.00 | 99 | 1009.9 |
| 20260510120537 | 52 | 69 | 0.0 | 0.0 | 0.00 | 0.00 | 0.00 | 99 | 1009.8 |
| 20260510120032 | 52 | 77 | 1.0 | 2.0 | 0.00 | 0.00 | 0.00 | 99 | 1009.9 |
| 20260510115529 | 52 | 66 | 0.0 | 1.0 | 0.00 | 0.00 | 0.00 | 99 | 1009.9 |
| 20260510115026 | 52 | 62 | 0.0 | 0.0 | 0.00 | 0.00 | 0.00 | 99 | 1009.9 |
| 20260510114522 | 52 | 76 | 1.0 | 1.0 | 0.00 | 0.00 | 0.00 | 99 | 1010.0 |
| 20260510114018 | 52 | 44 | 0.0 | 0.0 | 0.00 | 0.00 | 0.00 | 99 | 1009.9 |
| 20260510113514 | 52 | 84 | 0.0 | 0.0 | 0.00 | 0.00 | 0.00 | 99 | 1010.1 |
| 20260510113012 | 52 | 66 | 0.0 | 0.0 | 0.00 | 0.00 | 0.00 | 99 | 1010.0 |
| 20260510112508 | 52 | 49 | 0.0 | 0.0 | 0.00 | 0.00 | 0.00 | 99 | 1010.0 |
| 20260510112004 | 52 | 49 | 0.0 | 0.0 | 0.00 | 0.00 | 0.00 | 99 | 1010.2 |
| 20260510111501 | 52 | 49 | 0.0 | 0.0 | 0.00 | 0.00 | 0.00 | 99 | 1009.8 |
| 20260510110957 | 51 | 49 | 0.0 | 0.0 | 0.00 | 0.00 | 0.00 | 99 | 1009.6 |
| 20260510110453 | 51 | 50 | 0.0 | 0.0 | 0.00 | 0.00 | 0.00 | 99 | 1009.3 |
| 20260510105949 | 51 | 50 | 0.0 | 0.0 | 0.00 | 0.00 | 0.00 | 99 | 1009.5 |
| 20260510105444 | 51 | 50 | 0.0 | 0.0 | 0.00 | 0.00 | 0.00 | 99 | 1009.2 |
| 20260510104940 | 51 | 52 | 0.0 | 0.0 | 0.00 | 0.00 | 0.00 | 99 | 1009.0 |
| 20260510104437 | 51 | 51 | 0.0 | 0.0 | 0.00 | 0.00 | 0.00 | 99 | 1009.0 |
| 20260510103933 | 51 | 60 | 0.0 | 0.0 | 0.00 | 0.00 | 0.00 | 99 | 1009.3 |
| 20260510103426 | 51 | 60 | 0.0 | 0.0 | 0.00 | 0.00 | 0.00 | 99 | 1009.2 |
| 20260510102926 | 51 | 60 | 0.0 | 0.0 | 0.00 | 0.00 | 0.00 | 99 | 1009.4 |
| 20260510102422 | 51 | 60 | 0.0 | 0.0 | 0.00 | 0.00 | 0.00 | 99 | 1009.3 |
| 20260510101919 | 51 | 59 | 0.0 | 0.0 | 0.00 | 0.00 | 0.00 | 99 | 1009.3 |
| 20260510101417 | 51 | 60 | 0.0 | 0.0 | 0.00 | 0.00 | 0.00 | 99 | 1009.3 |
| 20260510100915 | 51 | 59 | 0.0 | 0.0 | 0.00 | 0.00 | 0.00 | 99 | 1009.4 |
| 20260510100411 | 50 | 59 | 0.0 | 0.0 | 0.00 | 0.00 | 0.00 | 99 | 1009.4 |
| 20260510095908 | 50 | 60 | 0.0 | 0.0 | 0.00 | 0.00 | 0.00 | 99 | 1009.4 |
| 20260510095403 | 50 | 59 | 0.0 | 0.0 | 0.00 | 0.00 | 0.00 | 99 | 1009.2 |
| 20260510094902 | 50 | 59 | 0.0 | 0.0 | 0.00 | 0.00 | 0.00 | 99 | 1009.2 |
| 20260510094357 | 50 | 59 | 0.0 | 0.0 | 0.00 | 0.00 | 0.00 | 99 | 1009.2 |
| 20260510093854 | 50 | 59 | 0.0 | 0.0 | 0.00 | 0.00 | 0.00 | 99 | 1009.2 |
| 20260510093349 | 50 | 59 | 0.0 | 0.0 | 0.00 | 0.00 | 0.00 | 99 | 1009.3 |
| 20260510092846 | 50 | 58 | 0.0 | 0.0 | 0.00 | 0.00 | 0.00 | 99 | 1009.4 |
| 20260510092342 | 50 | 56 | 0.0 | 0.0 | 0.00 | 0.00 | 0.00 | 99 | 1009.4 |
| 20260510091838 | 50 | 56 | 0.0 | 0.0 | 0.00 | 0.00 | 0.00 | 99 | 1009.3 |
| 20260510091335 | 50 | 55 | 0.0 | 0.0 | 0.00 | 0.00 | 0.00 | 99 | 1009.5 |
| 20260510090832 | 50 | 65 | 1.0 | 1.0 | 0.00 | 0.00 | 0.00 | 99 | 1009.5 |
| 20260510090328 | 50 | 54 | 0.0 | 0.0 | 0.00 | 0.00 | 0.00 | 99 | 1009.7 |
| 20260510085824 | 50 | 51 | 0.0 | 0.0 | 0.00 | 0.00 | 0.00 | 99 | 1009.9 |
| 20260510085324 | 50 | 61 | 0.0 | 0.0 | 0.00 | 0.00 | 0.00 | 99 | 1009.7 |
| 20260510084820 | 50 | 50 | 1.0 | 1.0 | 0.00 | 0.00 | 0.00 | 99 | 1009.7 |
| 20260510084317 | 50 | 54 | 0.0 | 0.0 | 0.00 | 0.00 | 0.00 | 99 | 1009.7 |
| 20260510083814 | 50 | 62 | 0.0 | 0.0 | 0.00 | 0.00 | 0.00 | 99 | 1009.5 |
| 20260510083311 | 49 | 38 | 0.0 | 0.0 | 0.00 | 0.00 | 0.00 | 99 | 1009.7 |
| 20260510082806 | 49 | 62 | 0.0 | 0.0 | 0.00 | 0.00 | 0.00 | 99 | 1009.3 |
| 20260510082306 | 49 | 37 | 0.0 | 0.0 | 0.00 | 0.00 | 0.00 | 99 | 1009.7 |
| 20260510081802 | 49 | 63 | 0.0 | 0.0 | 0.00 | 0.00 | 0.00 | 99 | 1009.0 |
| 20260510081258 | 49 | 63 | 0.0 | 0.0 | 0.00 | 0.00 | 0.00 | 99 | 1008.9 |
| 20260510080754 | 49 | 63 | 0.0 | 0.0 | 0.00 | 0.00 | 0.00 | 99 | 1008.8 |
| 20260510080249 | 49 | 63 | 0.0 | 0.0 | 0.00 | 0.00 | 0.00 | 99 | 1008.8 |
| 20260510075747 | 49 | 63 | 0.0 | 0.0 | 0.00 | 0.00 | 0.00 | 99 | 1008.6 |
| 20260510075244 | 49 | 63 | 0.0 | 0.0 | 0.00 | 0.00 | 0.00 | 99 | 1008.7 |
| 20260510074741 | 49 | 63 | 0.0 | 0.0 | 0.00 | 0.00 | 0.00 | 99 | 1008.8 |
| 20260510074238 | 49 | 63 | 0.0 | 0.0 | 0.00 | 0.00 | 0.00 | 99 | 1008.9 |
| 20260510073734 | 49 | 63 | 0.0 | 0.0 | 0.00 | 0.00 | 0.00 | 99 | 1008.5 |
| 20260510073230 | 49 | 63 | 0.0 | 0.0 | 0.00 | 0.00 | 0.00 | 99 | 1008.7 |
| 20260510072726 | 49 | 63 | 0.0 | 0.0 | 0.00 | 0.00 | 0.00 | 99 | 1008.6 |
| 20260510072223 | 49 | 63 | 0.0 | 0.0 | 0.00 | 0.00 | 0.00 | 99 | 1008.5 |
| 20260510071719 | 49 | 63 | 0.0 | 0.0 | 0.00 | 0.00 | 0.00 | 99 | 1008.6 |
| 20260510071216 | 49 | 63 | 0.0 | 0.0 | 0.00 | 0.00 | 0.00 | 99 | 1008.6 |
| 20260510070714 | 49 | 63 | 0.0 | 0.0 | 0.00 | 0.00 | 0.00 | 99 | 1008.6 |
| 20260510070211 | 49 | 63 | 0.0 | 0.0 | 0.00 | 0.00 | 0.00 | 99 | 1008.6 |
| 20260510065706 | 49 | 63 | 0.0 | 0.0 | 0.00 | 0.00 | 0.00 | 99 | 1008.8 |
| 20260510065202 | 49 | 64 | 0.0 | 0.0 | 0.00 | 0.00 | 0.00 | 99 | 1008.7 |
| 20260510064659 | 49 | 64 | 0.0 | 0.0 | 0.00 | 0.00 | 0.00 | 99 | 1008.8 |
| 20260510064156 | 49 | 66 | 0.0 | 0.0 | 0.00 | 0.00 | 0.00 | 99 | 1008.6 |
| 20260510063653 | 49 | 60 | 0.0 | 0.0 | 0.00 | 0.00 | 0.00 | 99 | 1008.8 |
| 20260510063149 | 49 | 60 | 0.0 | 0.0 | 0.00 | 0.00 | 0.00 | 99 | 1008.4 |
| 20260510062646 | 49 | 60 | 0.0 | 0.0 | 0.00 | 0.00 | 0.00 | 99 | 1008.4 |
| 20260510062142 | 49 | 60 | 0.0 | 0.0 | 0.00 | 0.00 | 0.00 | 99 | 1008.5 |
| 20260510061637 | 49 | 60 | 0.0 | 0.0 | 0.00 | 0.00 | 0.00 | 99 | 1008.4 |
| 20260510061135 | 50 | 60 | 0.0 | 0.0 | 0.00 | 0.00 | 0.00 | 99 | 1008.2 |
| 20260510060631 | 50 | 60 | 0.0 | 0.0 | 0.00 | 0.00 | 0.00 | 99 | 1008.4 |
| 20260510060128 | 50 | 60 | 0.0 | 0.0 | 0.00 | 0.00 | 0.00 | 99 | 1008.6 |
| 20260510055624 | 50 | 60 | 0.0 | 0.0 | 0.00 | 0.00 | 0.00 | 99 | 1008.4 |
| 20260510055123 | 50 | 60 | 0.0 | 0.0 | 0.00 | 0.00 | 0.00 | 99 | 1008.4 |
| 20260510054617 | 50 | 60 | 0.0 | 0.0 | 0.00 | 0.00 | 0.00 | 99 | 1008.5 |
| 20260510054113 | 50 | 60 | 0.0 | 0.0 | 0.00 | 0.00 | 0.00 | 99 | 1008.4 |
| 20260510053612 | 50 | 60 | 0.0 | 0.0 | 0.00 | 0.00 | 0.00 | 99 | 1008.5 |
| 20260510053110 | 51 | 60 | 0.0 | 0.0 | 0.00 | 0.00 | 0.00 | 99 | 1008.4 |
| 20260510052605 | 51 | 60 | 0.0 | 0.0 | 0.00 | 0.00 | 0.00 | 99 | 1008.4 |
| 20260510052102 | 50 | 60 | 0.0 | 0.0 | 0.00 | 0.00 | 0.00 | 99 | 1008.4 |
| 20260510051557 | 50 | 60 | 0.0 | 0.0 | 0.00 | 0.00 | 0.00 | 99 | 1008.6 |
| 20260510051054 | 50 | 60 | 0.0 | 0.0 | 0.00 | 0.00 | 0.00 | 99 | 1008.6 |
| 20260510050552 | 50 | 60 | 0.0 | 0.0 | 0.00 | 0.00 | 0.00 | 99 | 1008.6 |
| 20260510050049 | 50 | 60 | 0.0 | 0.0 | 0.00 | 0.00 | 0.00 | 99 | 1008.8 |
| 20260510045546 | 50 | 60 | 0.0 | 0.0 | 0.00 | 0.00 | 0.00 | 99 | 1008.6 |
| 20260510045041 | 50 | 60 | 0.0 | 0.0 | 0.00 | 0.00 | 0.00 | 99 | 1008.8 |
| 20260510044538 | 50 | 60 | 0.0 | 0.0 | 0.00 | 0.00 | 0.00 | 99 | 1008.7 |
| 20260510044036 | 50 | 60 | 0.0 | 0.0 | 0.00 | 0.00 | 0.00 | 99 | 1008.9 |
| 20260510043532 | 50 | 60 | 0.0 | 0.0 | 0.00 | 0.00 | 0.00 | 99 | 1008.8 |
| 20260510043027 | 50 | 60 | 0.0 | 0.0 | 0.00 | 0.00 | 0.00 | 99 | 1008.8 |
| 20260510042521 | 49 | 60 | 0.0 | 0.0 | 0.00 | 0.00 | 0.00 | 99 | 1008.8 |
| 20260510042022 | 49 | 60 | 0.0 | 0.0 | 0.00 | 0.00 | 0.00 | 99 | 1008.9 |
| 20260510041520 | 49 | 60 | 0.0 | 0.0 | 0.00 | 0.00 | 0.00 | 99 | 1008.9 |
| 20260510041017 | 49 | 60 | 0.0 | 0.0 | 0.00 | 0.00 | 0.00 | 99 | 1008.8 |
| 20260510040513 | 49 | 60 | 0.0 | 0.0 | 0.00 | 0.00 | 0.00 | 99 | 1008.6 |
| 20260510040008 | 49 | 60 | 0.0 | 0.0 | 0.00 | 0.08 | 0.08 | 99 | 1008.6 |
| 20260510035506 | 49 | 60 | 0.0 | 0.0 | 0.00 | 0.08 | 0.08 | 99 | 1008.6 |
| 20260510035005 | 48 | 54 | 0.0 | 0.0 | 0.00 | 0.08 | 0.08 | 99 | 1008.5 |
| 20260510034504 | 48 | 55 | 0.0 | 0.0 | 0.00 | 0.08 | 0.08 | 99 | 1008.6 |
| 20260510034000 | 48 | 69 | 0.0 | 0.0 | 0.00 | 0.08 | 0.08 | 98 | 1008.7 |
| 20260510033456 | 48 | 66 | 0.0 | 0.0 | 0.00 | 0.08 | 0.08 | 98 | 1008.6 |
| 20260510032954 | 48 | 66 | 0.0 | 0.0 | 0.00 | 0.08 | 0.08 | 98 | 1008.7 |
| 20260510032450 | 48 | 66 | 0.0 | 0.0 | 0.00 | 0.08 | 0.08 | 98 | 1008.3 |
| 20260510031945 | 48 | 66 | 0.0 | 0.0 | 0.00 | 0.08 | 0.08 | 98 | 1008.4 |
| 20260510031441 | 49 | 66 | 0.0 | 0.0 | 0.00 | 0.08 | 0.08 | 98 | 1008.3 |
| 20260510030936 | 49 | 66 | 0.0 | 0.0 | 0.00 | 0.08 | 0.08 | 98 | 1008.5 |
| 20260510030432 | 49 | 66 | 0.0 | 0.0 | 0.00 | 0.08 | 0.08 | 98 | 1008.4 |
| 20260510025930 | 49 | 66 | 0.0 | 0.0 | 0.00 | 0.08 | 0.08 | 98 | 1008.5 |
| 20260510025427 | 49 | 66 | 0.0 | 0.0 | 0.00 | 0.08 | 0.08 | 98 | 1008.4 |
| 20260510024924 | 49 | 66 | 0.0 | 0.0 | 0.00 | 0.08 | 0.08 | 98 | 1008.3 |
| 20260510024420 | 49 | 66 | 0.0 | 0.0 | 0.00 | 0.08 | 0.08 | 98 | 1008.3 |
| 20260510023916 | 49 | 66 | 0.0 | 0.0 | 0.00 | 0.08 | 0.08 | 98 | 1008.3 |
| 20260510023413 | 50 | 66 | 0.0 | 0.0 | 0.00 | 0.08 | 0.08 | 98 | 1008.4 |
| 20260510022911 | 50 | 66 | 0.0 | 0.0 | 0.00 | 0.08 | 0.08 | 98 | 1008.5 |
| 20260510022409 | 50 | 66 | 0.0 | 0.0 | 0.00 | 0.08 | 0.08 | 98 | 1008.7 |
| 20260510021908 | 50 | 66 | 0.0 | 0.0 | 0.00 | 0.08 | 0.08 | 98 | 1008.5 |
| 20260510021407 | 50 | 66 | 0.0 | 0.0 | 0.00 | 0.08 | 0.08 | 98 | 1008.3 |
| 20260510020903 | 50 | 67 | 0.0 | 0.0 | 0.00 | 0.08 | 0.08 | 98 | 1008.3 |
| 20260510020358 | 50 | 66 | 0.0 | 0.0 | 0.00 | 0.08 | 0.08 | 98 | 1008.4 |
| 20260510015854 | 50 | 66 | 0.0 | 0.0 | 0.00 | 0.08 | 0.08 | 98 | 1008.2 |
| 20260510015350 | 50 | 66 | 0.0 | 0.0 | 0.00 | 0.08 | 0.08 | 98 | 1008.5 |
| 20260510014845 | 51 | 66 | 0.0 | 0.0 | 0.00 | 0.08 | 0.08 | 98 | 1008.3 |
| 20260510014343 | 51 | 66 | 0.0 | 0.0 | 0.00 | 0.08 | 0.08 | 98 | 1008.6 |
| 20260510013839 | 51 | 66 | 0.0 | 0.0 | 0.00 | 0.08 | 0.08 | 98 | 1008.2 |
| 20260510013335 | 51 | 66 | 0.0 | 0.0 | 0.00 | 0.08 | 0.08 | 98 | 1008.2 |
| 20260510012830 | 51 | 66 | 0.0 | 0.0 | 0.00 | 0.08 | 0.08 | 98 | 1008.2 |
| 20260510012329 | 51 | 66 | 0.0 | 0.0 | 0.00 | 0.08 | 0.08 | 97 | 1008.3 |
| 20260510011824 | 51 | 66 | 0.0 | 0.0 | 0.00 | 0.08 | 0.08 | 97 | 1008.2 |
| 20260510011320 | 51 | 66 | 0.0 | 0.0 | 0.00 | 0.08 | 0.08 | 97 | 1008.3 |
| 20260510010817 | 51 | 66 | 0.0 | 0.0 | 0.00 | 0.08 | 0.08 | 97 | 1008.4 |
| 20260510010314 | 51 | 66 | 0.0 | 0.0 | 0.00 | 0.08 | 0.08 | 97 | 1008.2 |
| 20260510005811 | 51 | 66 | 0.0 | 0.0 | 0.00 | 0.08 | 0.08 | 97 | 1007.9 |
| 20260510005307 | 51 | 66 | 0.0 | 0.0 | 0.00 | 0.08 | 0.08 | 97 | 1008.0 |
| 20260510004805 | 51 | 66 | 0.0 | 0.0 | 0.00 | 0.08 | 0.08 | 97 | 1007.8 |
| 20260510004302 | 51 | 66 | 0.0 | 0.0 | 0.00 | 0.08 | 0.08 | 97 | 1007.8 |
| 20260510003759 | 52 | 66 | 0.0 | 0.0 | 0.00 | 0.08 | 0.08 | 97 | 1007.9 |
| 20260510003256 | 52 | 65 | 0.0 | 0.0 | 0.00 | 0.08 | 0.08 | 97 | 1007.7 |
| 20260510002755 | 52 | 65 | 0.0 | 0.0 | 0.00 | 0.08 | 0.08 | 96 | 1007.9 |
| 20260510002253 | 52 | 66 | 0.0 | 0.0 | 0.00 | 0.08 | 0.08 | 96 | 1007.6 |
| 20260510001749 | 53 | 65 | 0.0 | 0.0 | 0.00 | 0.08 | 0.08 | 96 | 1007.7 |
| 20260510001247 | 53 | 66 | 0.0 | 0.0 | 0.00 | 0.08 | 0.08 | 96 | 1007.8 |
| 20260510000743 | 53 | 66 | 0.0 | 0.0 | 0.00 | 0.08 | 0.08 | 96 | 1007.7 |
| 20260510000241 | 53 | 66 | 0.0 | 0.0 | 0.00 | 0.08 | 0.08 | 96 | 1007.7 |
| 20260509235737 | 53 | 66 | 0.0 | 0.0 | 0.00 | 0.08 | 0.08 | 96 | 1007.9 |
| 20260509235234 | 53 | 66 | 0.0 | 0.0 | 0.00 | 0.08 | 0.08 | 96 | 1007.7 |
| 20260509234730 | 53 | 66 | 0.0 | 0.0 | 0.00 | 0.08 | 0.08 | 96 | 1007.8 |
| 20260509234227 | 53 | 66 | 0.0 | 0.0 | 0.00 | 0.08 | 0.08 | 96 | 1007.6 |
| 20260509233725 | 54 | 66 | 0.0 | 0.0 | 0.00 | 0.08 | 0.08 | 96 | 1007.7 |
| 20260509233222 | 54 | 66 | 0.0 | 0.0 | 0.00 | 0.08 | 0.08 | 96 | 1007.6 |
| 20260509232718 | 54 | 66 | 0.0 | 0.0 | 0.00 | 0.08 | 0.08 | 96 | 1007.4 |
| 20260509232216 | 54 | 66 | 0.0 | 0.0 | 0.00 | 0.08 | 0.08 | 95 | 1007.5 |
| 20260509231712 | 54 | 66 | 0.0 | 0.0 | 0.00 | 0.08 | 0.08 | 95 | 1007.1 |
| 20260509231209 | 54 | 65 | 0.0 | 0.0 | 0.00 | 0.08 | 0.08 | 95 | 1007.5 |
| 20260509230707 | 54 | 64 | 0.0 | 0.0 | 0.00 | 0.08 | 0.08 | 95 | 1007.5 |
| 20260509230203 | 54 | 62 | 0.0 | 0.0 | 0.00 | 0.08 | 0.08 | 95 | 1007.6 |
| 20260509225659 | 54 | 62 | 0.0 | 0.0 | 0.00 | 0.08 | 0.08 | 95 | 1007.6 |
| 20260509225154 | 55 | 72 | 0.0 | 0.0 | 0.00 | 0.08 | 0.08 | 95 | 1007.8 |
| 20260509224650 | 55 | 55 | 0.0 | 0.0 | 0.00 | 0.08 | 0.08 | 95 | 1007.9 |
| 20260509224148 | 54 | 55 | 0.0 | 0.0 | 0.00 | 0.08 | 0.08 | 95 | 1007.9 |
| 20260509223644 | 55 | 55 | 0.0 | 0.0 | 0.00 | 0.08 | 0.08 | 95 | 1007.6 |
| 20260509223141 | 55 | 65 | 0.0 | 1.0 | 0.00 | 0.08 | 0.08 | 95 | 1007.4 |
| 20260509222639 | 54 | 53 | 0.0 | 0.0 | 0.00 | 0.08 | 0.08 | 95 | 1007.6 |
| 20260509222134 | 54 | 51 | 0.0 | 0.0 | 0.00 | 0.08 | 0.08 | 95 | 1007.7 |
| 20260509221630 | 54 | 54 | 0.0 | 0.0 | 0.00 | 0.08 | 0.08 | 95 | 1007.9 |
| 20260509221126 | 54 | 63 | 0.0 | 0.0 | 0.00 | 0.08 | 0.08 | 95 | 1007.9 |
| 20260509220622 | 54 | 73 | 1.0 | 1.0 | 0.00 | 0.08 | 0.08 | 94 | 1007.9 |
| 20260509220118 | 54 | 79 | 1.0 | 1.0 | 0.00 | 0.08 | 0.08 | 95 | 1008.2 |
| 20260509215614 | 55 | 61 | 0.0 | 0.0 | 0.00 | 0.08 | 0.08 | 94 | 1008.1 |
| 20260509215111 | 54 | 65 | 0.0 | 0.0 | 0.00 | 0.08 | 0.08 | 94 | 1008.0 |
| 20260509214608 | 54 | 47 | 0.0 | 0.0 | 0.05 | 0.08 | 0.08 | 94 | 1008.0 |
| 20260509214105 | 54 | 47 | 0.0 | 0.0 | 0.00 | 0.07 | 0.07 | 94 | 1007.9 |
| 20260509213601 | 55 | 41 | 0.0 | 0.0 | 0.12 | 0.07 | 0.07 | 93 | 1008.1 |
| 20260509213057 | 55 | 63 | 0.0 | 1.0 | 0.31 | 0.07 | 0.07 | 93 | 1008.0 |
| 20260509212555 | 55 | 66 | 0.0 | 0.0 | 0.24 | 0.05 | 0.05 | 92 | 1008.3 |
| 20260509212052 | 55 | 82 | 1.0 | 1.0 | 0.05 | 0.02 | 0.02 | 91 | 1008.2 |
| 20260509211548 | 55 | 55 | 0.0 | 0.0 | 0.00 | 0.01 | 0.01 | 90 | 1008.3 |
| 20260509211044 | 55 | 54 | 0.0 | 0.0 | 0.07 | 0.01 | 0.01 | 89 | 1008.1 |
| 20260509210541 | 55 | 55 | 0.0 | 1.0 | 0.07 | 0.01 | 0.01 | 88 | 1007.7 |
| 20260509210038 | 56 | 56 | 1.0 | 1.0 | 0.00 | 0.00 | 0.00 | 88 | 1007.7 |
| 20260509205538 | 56 | 51 | 0.0 | 0.0 | 0.00 | 0.00 | 0.00 | 87 | 1008.2 |
| 20260509205033 | 56 | 66 | 0.0 | 0.0 | 0.00 | 0.00 | 0.00 | 87 | 1008.3 |
| 20260509204530 | 56 | 66 | 0.0 | 0.0 | 0.00 | 0.00 | 0.00 | 86 | 1008.0 |
| 20260509204026 | 56 | 50 | 0.0 | 1.0 | 0.00 | 0.00 | 0.00 | 86 | 1008.0 |
| 20260509203522 | 56 | 67 | 0.0 | 0.0 | 0.00 | 0.00 | 0.00 | 87 | 1008.1 |
| 20260509203021 | 56 | 68 | 1.0 | 1.0 | 0.00 | 0.00 | 0.00 | 86 | 1007.6 |
| 20260509202521 | 56 | 46 | 0.0 | 1.0 | 0.00 | 0.00 | 0.00 | 86 | 1007.8 |
| 20260509202017 | 57 | 65 | 0.0 | 0.0 | 0.00 | 0.00 | 0.00 | 86 | 1007.9 |
| 20260509201512 | 56 | 52 | 0.0 | 0.0 | 0.00 | 0.00 | 0.00 | 86 | 1007.9 |
| 20260509201010 | 56 | 41 | 0.0 | 0.0 | 0.00 | 0.00 | 0.00 | 86 | 1007.8 |
| 20260509200510 | 56 | 62 | 0.0 | 0.0 | 0.00 | 0.00 | 0.00 | 86 | 1007.8 |
| 20260509200007 | 56 | 87 | 2.0 | 2.0 | 0.00 | 0.00 | 0.00 | 86 | 1008.2 |
| 20260509195502 | 56 | 60 | 0.0 | 0.0 | 0.00 | 0.00 | 0.00 | 86 | 1008.3 |
| 20260509195001 | 56 | 43 | 1.0 | 1.0 | 0.00 | 0.00 | 0.00 | 85 | 1008.2 |
| 20260509194457 | 56 | 33 | 2.0 | 2.0 | 0.00 | 0.00 | 0.00 | 84 | 1008.2 |
| 20260509193955 | 57 | 38 | 0.0 | 0.0 | 0.00 | 0.00 | 0.00 | 84 | 1008.5 |
| 20260509193454 | 57 | 80 | 1.0 | 1.0 | 0.00 | 0.00 | 0.00 | 83 | 1008.5 |
| 20260509192951 | 57 | 52 | 1.0 | 1.0 | 0.00 | 0.00 | 0.00 | 83 | 1008.6 |
| 20260509192448 | 57 | 47 | 1.0 | 1.0 | 0.00 | 0.00 | 0.00 | 83 | 1008.6 |
| 20260509191942 | 57 | 23 | 1.0 | 2.0 | 0.00 | 0.00 | 0.00 | 82 | 1008.6 |
| 20260509191438 | 58 | 58 | 0.0 | 0.0 | 0.00 | 0.00 | 0.00 | 81 | 1008.5 |
| 20260509190934 | 58 | 36 | 0.0 | 0.0 | 0.00 | 0.00 | 0.00 | 81 | 1008.5 |
| 20260509190431 | 58 | 42 | 0.0 | 0.0 | 0.00 | 0.00 | 0.00 | 81 | 1008.5 |
| 20260509185929 | 58 | 59 | 0.0 | 0.0 | 0.00 | 0.00 | 0.00 | 81 | 1008.5 |
| 20260509185426 | 58 | 68 | 0.0 | 0.0 | 0.00 | 0.00 | 0.00 | 81 | 1008.3 |
| 20260509184923 | 58 | 82 | 2.0 | 2.0 | 0.00 | 0.00 | 0.00 | 81 | 1008.2 |
| 20260509184420 | 58 | 52 | 0.0 | 1.0 | 0.00 | 0.00 | 0.00 | 81 | 1008.3 |
| 20260509183917 | 58 | 42 | 1.0 | 1.0 | 0.00 | 0.00 | 0.00 | 81 | 1008.4 |
| 20260509183411 | 58 | 59 | 0.0 | 0.0 | 0.00 | 0.00 | 0.00 | 82 | 1008.4 |
| 20260509182908 | 58 | 42 | 1.0 | 1.0 | 0.00 | 0.00 | 0.00 | 83 | 1008.6 |
| 20260509182404 | 58 | 29 | 2.0 | 2.0 | 0.00 | 0.00 | 0.00 | 83 | 1008.2 |
| 20260509181902 | 58 | 49 | 0.0 | 0.0 | 0.00 | 0.00 | 0.00 | 83 | 1008.5 |
| 20260509181359 | 59 | 65 | 1.0 | 1.0 | 0.00 | 0.00 | 0.00 | 83 | 1008.5 |
| 20260509180857 | 59 | 65 | 0.0 | 0.0 | 0.00 | 0.00 | 0.00 | 82 | 1008.7 |
| 20260509180352 | 59 | 62 | 1.0 | 1.0 | 0.00 | 0.00 | 0.00 | 81 | 1008.4 |
| 20260509175849 | 60 | 43 | 0.0 | 0.0 | 0.00 | 0.00 | 0.00 | 81 | 1008.5 |
| 20260509175345 | 60 | 39 | 0.0 | 1.0 | 0.00 | 0.00 | 0.00 | 80 | 1008.6 |
| 20260509174841 | 60 | 44 | 1.0 | 1.0 | 0.00 | 0.00 | 0.00 | 79 | 1008.5 |
| 20260509174338 | 61 | 61 | 1.0 | 1.0 | 0.00 | 0.00 | 0.00 | 79 | 1008.4 |
| 20260509173833 | 61 | 39 | 1.0 | 1.0 | 0.00 | 0.00 | 0.00 | 77 | 1008.1 |
| 20260509173329 | 62 | 35 | 0.0 | 1.0 | 0.00 | 0.00 | 0.00 | 75 | 1008.3 |
| 20260509172825 | 62 | 36 | 0.0 | 0.0 | 0.00 | 0.00 | 0.00 | 71 | 1008.2 |
| 20260509172322 | 63 | 50 | 0.0 | 1.0 | 0.00 | 0.00 | 0.00 | 70 | 1008.3 |
| 20260509171818 | 63 | 192 | 1.0 | 3.0 | 0.00 | 0.00 | 0.00 | 69 | 1008.4 |
| 20260509171314 | 62 | 45 | 1.0 | 2.0 | 0.00 | 0.00 | 0.00 | 70 | 1008.3 |
| 20260509170811 | 62 | 32 | 0.0 | 1.0 | 0.00 | 0.00 | 0.00 | 73 | 1008.1 |
| 20260509170306 | 63 | 37 | 1.0 | 1.0 | 0.00 | 0.00 | 0.00 | 73 | 1008.4 |
| 20260509165806 | 63 | 2 | 1.0 | 2.0 | 0.00 | 0.00 | 0.00 | 71 | 1008.3 |
| 20260509165301 | 64 | 222 | 2.0 | 3.0 | 0.00 | 0.00 | 0.00 | 70 | 1008.2 |
| 20260509164757 | 64 | 152 | 2.0 | 2.0 | 0.00 | 0.00 | 0.00 | 69 | 1008.3 |
| 20260509164253 | 64 | 98 | 1.0 | 1.0 | 0.00 | 0.00 | 0.00 | 70 | 1008.4 |
| 20260509163750 | 63 | 88 | 1.0 | 2.0 | 0.00 | 0.00 | 0.00 | 71 | 1008.4 |
| 20260509163247 | 63 | 61 | 0.0 | 0.0 | 0.00 | 0.00 | 0.00 | 71 | 1008.7 |
| 20260509162745 | 63 | 25 | 1.0 | 2.0 | 0.00 | 0.00 | 0.00 | 72 | 1008.2 |
| 20260509162239 | 63 | 40 | 0.0 | 0.0 | 0.00 | 0.00 | 0.00 | 72 | 1008.5 |
| 20260509161736 | 62 | 110 | 2.0 | 2.0 | 0.00 | 0.00 | 0.00 | 74 | 1008.8 |
| 20260509161232 | 62 | 208 | 3.0 | 3.0 | 0.00 | 0.00 | 0.00 | 73 | 1009.0 |
| 20260509160727 | 62 | 206 | 2.0 | 3.0 | 0.00 | 0.00 | 0.00 | 74 | 1008.9 |
| 20260509160224 | 61 | 76 | 0.0 | 1.0 | 0.00 | 0.00 | 0.00 | 74 | 1009.2 |
| 20260509155718 | 61 | 59 | 1.0 | 1.0 | 0.00 | 0.00 | 0.00 | 75 | 1009.2 |
| 20260509155215 | 62 | 169 | 1.0 | 2.0 | 0.00 | 0.00 | 0.00 | 74 | 1009.3 |
| 20260509154711 | 61 | 218 | 3.0 | 5.0 | 0.00 | 0.00 | 0.00 | 75 | 1009.2 |
| 20260509154209 | 61 | 18 | 1.0 | 1.0 | 0.00 | 0.00 | 0.00 | 76 | 1009.5 |
| 20260509153706 | 61 | 43 | 0.0 | 0.0 | 0.00 | 0.00 | 0.00 | 76 | 1009.2 |